CZ-4 DEB

Satellite information

Favourite Embed

Satellite Type and Status

DEBRISIN ORBIT

Key statistics

Satellite CZ-4 DEB at a glance.

Uptime

12790

Days in orbit

Revolutions

≈ 13.7

Per day

Orbit

SSO

Sun Synchronous Orbit

Inclination

98.9

Latest

Satellite identification and parameters

Extended collection of information and parameters for CZ-4 DEB.

Object identification

Identified? True

Debris? True

Object name: CZ-4 DEB

International designator: 1990-081DN

Object number (NORAD): 37626

Object ID (CCSDS): 37626

Country: PEOPLES REPUBLIC OF CHINA (PRC)

Current information (Y/N): Y

RCS size: SMALL

Orbital parameters

Period: 104.945 minutes

Inclination: 98.9069 deg

SMA: 7369.997 km

Apoapsis: 1112.578 km

Periapsis: 871.146 km

RAAN: 210.1173 deg

Eccentricy: 0.01637938

Argument of periapsis: 64.0175 deg

Mean anomaly: 326.7218 deg

Mean motion: 13.72150623 rev/day

Mean motion (dot): 0.00000497 rev/day2

B* drag term: 0.00053514677 1/REarth

Two-line elements (TLE)

Creation date: Sept. 6, 2025, 2:09 a.m.

Reference frame: TEME

Reference center: EARTH

Epoch: Sept. 5, 2025, 8:39 p.m. UTC

TLE line 0: 0 CZ-4 DEB

TLE line 1: 1 37626U 90081DN 25248.86046030 .00000497 00000-0 53515-3 0 9992

TLE line 2: 2 37626 98.9069 210.1173 0163794 64.0175 326.7218 13.72150623102298

Live tracking on map

Real-time ground track for satellite CZ-4 DEB.

In-orbit conjunctions

A list of the most updated potential collisions computed for object CZ-4 DEB.

Target Orbit TCA Probability of collision Miss distance Type
SL-8 R/B LEO 2024-10-28 10:15:37 0.0001057484 479.0 (m) ROCKET BODY
COSMOS 2361 LEO 2024-08-15 15:34:38 0.0004772378 127.0 (m) PAYLOAD

Associated space launch

Chinese polar orbiting meteorological satellite

CZ-4 DEB was lifted into orbit during the mission ‘Long March 4A | Feng Yun 1B’, on board a Long March 4A space rocket.

The launch took place on Sept. 3, 1990, 12:53 a.m. from Launch Complex 7.

For more information about the launch, click the button.

Launch to space Long March 4A | Feng Yun 1B
Long March 4A | Feng Yun 1B

Agency: N/A

Status: Launch Successful

Launch date: Sept. 3, 1990, 12:53 a.m. UTC

Rocket: Long March 4A

Launch pad: Launch Complex 7

Location: Taiyuan Satellite Launch Center, People's Republic of China

...

Latest news about this satellite

There are no fresh news available about this satellite. Check back as we update our databases every day.


Newsletter sign-up

Weekly statistics, charts and insights to help you stay on top of the space industry.